Weather History for Nogales, AZ

Change the Weather History Date:

Monday, April 22, 2013

  Actual Average (KTUS) Record (KTUS)
Temperature  
Mean Temperature 66 °F 69 °F  
Max Temperature 87 °F 84 °F 101 °F (2012)
Min Temperature 46 °F 54 °F 33 °F (1904)
Degree Days  
Heating Degree Days 0 1  
Month to date heating degree days 52  
Since 1 July heating degree days 1498  
Cooling Degree Days 2 5  
Month to date cooling degree days 72  
Year to date cooling degree days 105  
Growing Degree Days 16 (Base 50)    
Moisture  
Dew Point 13 °F    
Average Humidity 14    
Maximum Humidity 31    
Minimum Humidity 5    
Precipitation  
Precipitation 0.00 in 0.01 in 0.70 in (1913)
Month to date precipitation 0.26  
Year to date precipitation 2.79  
Sea Level Pressure  
Sea Level Pressure 29.86 in    
Wind  
Wind Speed 5 mph (SSW)    
Max Wind Speed 16 mph    
Max Gust Speed 23 mph    
Visibility 10 miles    
Events      
T = Trace of Precipitation, MM = Missing Value Source: NWS Daily Summary

Daily Weather History Graph

Daily Weather History Graph

Search for Another Location

Airport:

Trip Planner

Search our weather history database for the weather conditions in past years. The results will help you decide how hot, cold, wet, or windy it might be!

Date:

Astronomy

Apr. 22, 2013 Rise Set
Actual Time 5:47 AM MST 6:57 PM MST
Civil Twilight 5:21 AM MST 7:22 PM MST
Nautical Twilight 4:51 AM MST 7:52 PM MST
Astronomical Twilight 4:20 AM MST 8:23 PM MST
Moon 4:00 PM MST (4/22) 3:31 AM MST (4/22)
Length of Visible Light 14h 00m
Length of Day
13h 09m
Waxing Gibbous, 88% of the Moon is Illuminated
Apr 22
Waxing Gibbous
Apr 25
Full
May 2
Last Quarter
May 9
New
May 17
First Quarter

Hourly Weather History & Observations

Time (MST) Temp. Windchill Dew Point Humidity Pressure Visibility Wind Dir Wind Speed Gust Speed Precip Events Conditions
12:54 AM 55.0 °F - 16.0 °F 22% 29.93 in 10.0 mi Calm Calm - N/A   Clear
1:54 AM 55.0 °F - 17.1 °F 23% 29.91 in 10.0 mi East 4.6 mph - N/A   Clear
2:54 AM 53.1 °F - 17.1 °F 24% 29.90 in 10.0 mi East 3.5 mph - N/A   Clear
3:54 AM 52.0 °F - 17.1 °F 25% 29.90 in 10.0 mi ENE 4.6 mph - N/A   Clear
4:54 AM 48.9 °F - 17.1 °F 28% 29.91 in 10.0 mi Calm Calm - N/A   Clear
5:54 AM 46.0 °F 44.8 °F 17.1 °F 31% 29.92 in 10.0 mi ENE 3.5 mph - N/A   Clear
6:26 AM 48.9 °F - 17.1 °F 28% 30.07 in 10.0 mi Calm Calm - N/A   Partly Cloudy
6:54 AM 53.1 °F - 18.0 °F 25% 29.94 in 10.0 mi Calm Calm - N/A   Clear
7:54 AM 63.0 °F - 18.0 °F 18% 29.93 in 10.0 mi Calm Calm - N/A   Clear
8:54 AM 71.1 °F - 17.1 °F 13% 29.92 in 10.0 mi South 5.8 mph - N/A   Clear
9:54 AM 77.0 °F - 12.9 °F 9% 29.91 in 10.0 mi South 9.2 mph - N/A   Clear
10:54 AM 81.0 °F - 12.9 °F 8% 29.89 in 10.0 mi South 9.2 mph 19.6 mph N/A   Clear
11:54 AM 84.0 °F - 15.1 °F 8% 29.86 in 10.0 mi SW 10.4 mph - N/A   Clear
12:54 PM 86.0 °F - 9.0 °F 5% 29.84 in 10.0 mi WSW 12.7 mph 20.7 mph N/A   Clear
1:54 PM 86.0 °F - 9.0 °F 5% 29.82 in 10.0 mi WSW 8.1 mph 21.9 mph N/A   Clear
2:54 PM 86.0 °F - 10.0 °F 6% 29.80 in 10.0 mi Variable 6.9 mph 19.6 mph N/A   Clear
3:54 PM 87.1 °F - 7.0 °F 5% 29.78 in 10.0 mi SW 16.1 mph 23.0 mph N/A   Clear
4:54 PM 84.9 °F - 7.0 °F 5% 29.78 in 10.0 mi SW 12.7 mph 18.4 mph N/A   Clear
5:54 PM 82.0 °F - 3.0 °F 5% 29.79 in 10.0 mi WSW 11.5 mph 23.0 mph N/A   Clear
6:54 PM 77.0 °F - 6.1 °F 7% 29.78 in 10.0 mi SW 9.2 mph - N/A   Clear
7:54 PM 71.1 °F - 7.0 °F 8% 29.79 in 10.0 mi SSW 5.8 mph - N/A   Clear
8:54 PM 69.1 °F - 10.0 °F 10% 29.79 in 10.0 mi SE 4.6 mph - N/A   Clear
9:54 PM 69.1 °F - 10.9 °F 11% 29.79 in 10.0 mi Variable 3.5 mph - N/A   Clear
10:54 PM 64.9 °F - 12.9 °F 13% 29.79 in 10.0 mi SSE 8.1 mph - N/A   Clear
11:54 PM 63.0 °F - 10.0 °F 13% 29.79 in 10.0 mi South 4.6 mph - N/A   Clear